Spring Hill, FL

7:01 AM EST on February 06, 2016 (GMT -0500)
Hernando County

Weather History for KBKV - January, 2013

Change the Weather History Date:

Saturday, January 12, 2013

  Actual Average Record
Temperature  
Mean Temperature 70 °F -  
Max Temperature 84 °F 67 °F 84 °F (2013)
Min Temperature 55 °F 41 °F 34 °F (2011)
Cooling Degree Days 4    
Growing Degree Days 20 (Base 50)    
Moisture  
Dew Point 58 °F    
Average Humidity 87    
Maximum Humidity 100    
Minimum Humidity 44    
Precipitation  
Precipitation 0.00 in - - ()
Sea Level Pressure  
Sea Level Pressure 30.17 in    
Wind  
Wind Speed 1 mph (ESE)    
Max Wind Speed 14 mph    
Max Gust Speed 20 mph    
Visibility 5 miles    
Events Fog    
Averages and records for this station are not official NWS values.
T = Trace of Precipitation, MM = Missing Value Source: NWS Daily Summary

Daily Weather History Graph

Daily Weather History Graph

Search for Another Location

Airport or City:

Trip Planner

Search our weather history database for the weather conditions in past years. The results will help you decide how hot, cold, wet, or windy it might be!

Date:

Astronomy

Jan. 12, 2013 Rise Set
Actual Time 7:23 AM EST 5:53 PM EST
Civil Twilight 6:58 AM EST 6:18 PM EST
Nautical Twilight 6:29 AM EST 6:47 PM EST
Astronomical Twilight 6:00 AM EST 7:16 PM EST
Moon 7:49 AM EST (1/12) 7:10 PM EST (1/12)
Length of Visible Light 11h 20m
Length of Day
10h 29m
New Moon, 1% of the Moon is Illuminated
Jan 12
New Moon
Jan 18
First Quarter
Jan 26
Full
Feb 3
Last Quarter
Feb 10
New

Hourly Weather History & Observations

Time (EST) Temp. Heat Index Dew Point Humidity Pressure Visibility Wind Dir Wind Speed Gust Speed Precip Events Conditions
12:53 AM 61.0 °F - 60.1 °F 97% 30.20 in 10.0 mi Calm Calm - N/A   Scattered Clouds
1:19 AM 60.8 °F - 59.0 °F 94% 30.19 in 1.8 mi Calm Calm - N/A   Clear
1:37 AM 59.0 °F - 57.2 °F 94% 30.19 in 1.8 mi Calm Calm - N/A   Clear
1:49 AM 60.8 °F - 60.8 °F 100% 30.19 in 3.0 mi Calm Calm - N/A   Clear
1:53 AM 61.0 °F - 60.1 °F 97% 30.19 in 5.0 mi Calm Calm - N/A   Clear
2:48 AM 57.2 °F - 57.2 °F 100% 30.18 in 1.8 mi Calm Calm - N/A   Clear
2:57 AM 57.2 °F - 57.2 °F 100% 30.18 in 0.8 mi Calm Calm - N/A   Mist
3:05 AM 55.4 °F - 55.4 °F 100% 30.18 in 1.2 mi Calm Calm - N/A   Clear
3:23 AM 59.0 °F - 57.2 °F 94% 30.18 in 3.0 mi Calm Calm - N/A   Clear
3:33 AM 57.2 °F - 57.2 °F 100% 30.18 in 1.2 mi Calm Calm - N/A   Partly Cloudy
3:40 AM 57.2 °F - 55.4 °F 94% 30.18 in 0.2 mi Calm Calm - N/A Fog Fog
3:50 AM 55.4 °F - 55.4 °F 100% 30.18 in 0.2 mi Calm Calm - N/A Fog Fog
3:53 AM 55.0 °F - 55.0 °F 100% 30.17 in 0.2 mi Calm Calm - N/A Fog Fog
4:00 AM 55.4 °F - 55.4 °F 100% 30.18 in 0.5 mi Calm Calm - N/A Fog Fog
4:53 AM 55.9 °F - 55.9 °F 100% 30.17 in 1.0 mi Calm Calm - N/A   Mist
4:55 AM 55.4 °F - 55.4 °F 100% 30.17 in 0.8 mi Calm Calm - N/A   Mist
5:12 AM 55.4 °F - 55.4 °F 100% 30.17 in 0.8 mi Calm Calm - N/A   Mist
5:15 AM 57.2 °F - 55.4 °F 94% 30.17 in 1.2 mi Calm Calm - N/A   Mostly Cloudy
5:17 AM 57.2 °F - 55.4 °F 94% 30.17 in 2.0 mi Calm Calm - N/A   Mostly Cloudy
5:25 AM 57.2 °F - 55.4 °F 94% 30.17 in 4.0 mi Calm Calm - N/A   Overcast
5:29 AM 57.2 °F - 57.2 °F 100% 30.17 in 1.5 mi Calm Calm - N/A   Overcast
5:39 AM 57.2 °F - 57.2 °F 100% 30.17 in 2.0 mi Calm Calm - N/A   Mostly Cloudy
5:53 AM 57.9 °F - 57.0 °F 97% 30.17 in 10.0 mi Calm Calm - N/A   Scattered Clouds
6:32 AM 55.4 °F - 55.4 °F 100% 30.18 in 1.5 mi Calm Calm - N/A   Clear
6:38 AM 55.4 °F - 55.4 °F 100% 30.19 in 0.8 mi Calm Calm - N/A   Mist
6:48 AM 55.4 °F - 53.6 °F 94% 30.19 in 1.2 mi Calm Calm - N/A   Partly Cloudy
6:51 AM 55.4 °F - 55.4 °F 100% 30.19 in 4.0 mi Calm Calm - N/A   Partly Cloudy
6:53 AM 55.9 °F - 55.0 °F 97% 30.19 in 6.0 mi Calm Calm - N/A   Partly Cloudy
7:53 AM 55.9 °F - 55.9 °F 100% 30.19 in 5.0 mi East 3.5 mph - N/A   Clear
8:53 AM 68.0 °F - 64.9 °F 90% 30.20 in 10.0 mi ESE 5.8 mph - N/A   Clear
9:53 AM 73.9 °F - 64.9 °F 73% 30.20 in 10.0 mi SE 8.1 mph - N/A   Clear
10:53 AM 78.1 °F - 62.1 °F 58% 30.19 in 10.0 mi ESE 12.7 mph 18.4 mph N/A   Clear
11:53 AM 81.0 °F 81.7 °F 61.0 °F 50% 30.15 in 10.0 mi SE 13.8 mph 19.6 mph N/A   Clear
12:53 PM 84.0 °F 84.0 °F 60.1 °F 44% 30.13 in 10.0 mi SE 8.1 mph 18.4 mph N/A   Partly Cloudy
1:53 PM 82.9 °F 83.2 °F 60.1 °F 46% 30.12 in 10.0 mi ESE 6.9 mph 16.1 mph N/A   Partly Cloudy
2:53 PM 82.9 °F 82.8 °F 59.0 °F 44% 30.11 in 10.0 mi ESE 8.1 mph - N/A   Clear
3:53 PM 82.9 °F 82.8 °F 59.0 °F 44% 30.12 in 10.0 mi SE 4.6 mph - N/A   Mostly Cloudy
4:53 PM 81.0 °F 81.6 °F 60.1 °F 49% 30.12 in 10.0 mi SE 5.8 mph - N/A   Clear
5:53 PM 75.9 °F - 61.0 °F 60% 30.13 in 10.0 mi SE 3.5 mph - N/A   Clear
6:53 PM 71.1 °F - 63.0 °F 75% 30.13 in 10.0 mi Calm Calm - N/A   Clear
8:53 PM 64.0 °F - 62.1 °F 93% 30.11 in 10.0 mi Calm Calm - N/A   Partly Cloudy
9:53 PM 66.9 °F - 62.1 °F 84% 30.11 in 10.0 mi ESE 5.8 mph - N/A   Clear
10:53 PM 66.9 °F - 62.1 °F 84% 30.12 in 10.0 mi ESE 3.5 mph - N/A   Clear
11:53 PM 66.9 °F - 63.0 °F 87% 30.12 in 10.0 mi ESE 4.6 mph - N/A   Clear